Location: Unspecified
(35.7250°N, 0.0000°E)
Time: 11:47:39
(UTC+00:00)

Tiros 1 - Pass Details

Date: 25 June 2019
Orbit: 630 x 664 km, 48.4° (Epoch: 19 July)

Event Time Altitude Azimuth Distance (km) Brightness Sun altitude
Rises 23:24:01 0° 278° (W) 2,955 10.8 -30.2°
Reaches altitude 10° 23:26:50 10° 294° (WNW) 2,039 10.1 -30.3°
Maximum altitude 23:30:27 22° 344° (NNW) 1,417 9.5 -30.4°
Drops below altitude 10° 23:34:04 10° 35° (NE) 2,025 10.2 -30.5°
Sets 23:36:51 0° 51° (NE) 2,929 10.9 -30.6°
